DELTA 1 DEB *, 42557

Orbit data source: Space-Track

DELTA 1 DEB *, 42557 is space debris in SSO originally from a launch on Sun, 23 Jul 1972 UTC launched from the Air Force Western Test Range (AFWTR). Debris objects in space refer to the collection of defunct objects orbiting the Earth. Examples of debris include non-operational satellites, rocket bodies, and fragments generated from explosions, collisions, or faulty payload assembly.

Loading next visibility...
Identifier
42557, 1972-058JQ
Orbit
SSO
Country
Flag of USUS
Related business
Manufacturer
Unknown
Mission
Spacecraft
Bus & Motor
Unknown
Mass
Unknown
Launch date (UTC)
1972-07-23 (53 years ago)
Launch vehicle
Unknown
Launch site
Air Force Western Test Range (AFWTR)
Object type
Payload
Rocket body
Debris
Shape & HBR
Unknown shape, 0.1 m
Radar Cross Section
Small (<0.1 m²)

Expand to show TLE details & history
Last TLE update: 5 days ago

TLE from 5 days ago
0 DELTA 1 DEB *
1 42557U 72058JQ  25295.00478703  .00000164  00000-0  81664-4 0  9997
2 42557  98.6215  13.3107 0010949 246.9475 290.5422 14.29341255621448
Epoch: 2025-10-22T00:06Z
TLE epoch observation values (Epoch: 2025-10-22T00:06:53.599Z)
Latitude
2.49672°
Longitude
161.27954°
Altitude
793.826 km
Speed
7.458 km/s
True Right ascension
12h 54m 44s
True Declination
2° 28' 55"
Sunlit
Object was in daylight at epoch
Visualization orbit readout
Latitude
Unknown
Longitude
Unknown
Altitude
Unknown
Speed
Unknown
Apparent Right ascension
Unknown
Apparent Declination
Unknown
Sunlit
N/A
Visualization observer readout
Local Sidereal Time
00:16:11
Azimuth
Unknown
Elevation
Unknown
Doppler factor
Unknown
Orbital elements
Apogee altitude
798.925 km
Perigee altitude
783.226 km
Semi-major axis
7,169.212 km
Eccentricity
0.00109
Inclination
98.6215°
RAAN
13.3107°
Arg. of periapsis
246.9475°
True anomaly
290.42466°
Mean anomaly
290.5422°
Eccentric anomaly
290.48343°
Mean motion
3.57549 °/min
Orbital period
100.69 mins
BSTAR
0.000081664
Loading maneuver chart data...
Computing Atmospheric mass density...
Loading historical data...
Loading historical data...
Loading historical data...
Loading historical data...
Loading historical data...
Loading historical data...
Loading historical data...

Documentation

Showing up to 5 results
|